weather.gov     
National Weather Service

Regional Weather Roundup
NWS Homepage
This page is being discontinued on March 12, 2014.
The same data is available at this site. Please update your bookmarks.
Thank you, and we apologize for the inconvenience.
Please send an email to SR-SRH.Webmaster@noaa.gov with any concerns.


Current Version
Previous Version:    01  02  03  04  05  06  07  08  09  10  11  12  13  14  15  16  17  18  19  20  21  22  23  24  25  26  
[Printable]
684
ASUS41 KBOX 242110
RWRBOX

REGIONAL WEATHER ROUNDUP
NATIONAL WEATHER SERVICE TAUNTON MA
400 PM EST MON NOV 24 2014

NOTE:  "FAIR" INDICATES FEW OR NO CLOUDS BELOW 12,000 FEET WITH NO
SIGNIFICANT WEATHER AND/OR OBSTRUCTIONS TO VISIBILITY.  THE FOLLOWING
OBSERVATION LOCATIONS DO NOT REPORT PRESENT WEATHER...PROVINCETOWN...
SMITHFIELD...BLOCK ISLAND...KEENE...AND OXFORD.

MAZALL-242200-
EASTERN MASSACHUSETTS

CITY           SKY/WX    TMP DP  RH WIND       PRES   REMARKS
BOSTON         MOCLDY    64  60  87 S20G29    29.59F
BEVERLY        CLOUDY    64  59  83 S14G23    29.58F
LAWRENCE       PTCLDY    65  60  84 S12G26    29.57F
BEDFORD        CLOUDY    64  60  87 S12G21    29.57F
BLUE HILL        N/A     61  60  97 S24G33    29.60S
NORWOOD        CLOUDY    64  60  87 S13G25    29.60F
MARSHFIELD     NOT AVBL
PLYMOUTH       CLOUDY    63  61  93 S20G30    29.65F
TAUNTON        CLOUDY    65  60  84 S22G35    29.64F
NEW BEDFORD    CLOUDY    63  61  93 S28G39    29.65F
$$

MAZALL-242200-
CAPE COD AND THE ISLANDS

CITY           SKY/WX    TMP DP  RH WIND       PRES   REMARKS
FALMOUTH       CLOUDY    64  61  88 SW28G33   29.68S FOG
HYANNIS        CLOUDY    60  57  89 S17G28    29.67F FOG
CHATHAM        CLOUDY    58  58 100 S15G26    29.71F FOG
PROVINCETOWN   CLOUDY    61  57  88 S18G29    29.67S
NANTUCKET      CLOUDY    58  56  93 S20       29.73F FOG
MARTHAS VNYRD  LGT RAIN  61  60  97 S22G30    29.70S FOG
$$

MAZALL-242200-
CENTRAL AND WESTERN MASSACHUSETTS

CITY           SKY/WX    TMP DP  RH WIND       PRES   REMARKS
WORCESTER      CLOUDY    60  57  89 S18G26    29.58F
FITCHBURG      CLOUDY    66  57  72 S13G20    29.57F
ORANGE         CLOUDY    62  58  86 S10G21    29.53F
SPRINGFIELD    CLOUDY    63  59  88 S20G28    29.55S
WESTFIELD      CLOUDY    63  58  83 S15G21    29.55S
NORTH ADAMS    CLEAR     66  54  65 S17G25    29.51R
PITTSFIELD     CLOUDY    62  55  77 S12G21    29.52R
$$

RIZALL-242200-
RHODE ISLAND

CITY           SKY/WX    TMP DP  RH WIND       PRES   REMARKS
PROVIDENCE     CLOUDY    62  60  93 S22G31    29.64F
NEWPORT        CLOUDY    62  59  90 S17G28    29.66F FOG
BLOCK ISLAND   CLOUDY    61  55  82 SW20G28   29.68S
SMITHFIELD     CLOUDY    61  55  82 S10G23    29.62S
WESTERLY       CLOUDY    59  58  96 S22G29    29.66S FOG
$$

CTZALL-242200-
CONNECTICUT

CITY           SKY/WX    TMP DP  RH WIND       PRES   REMARKS
BRADLEY INTL   CLOUDY    63  58  83 S15G29    29.56F
HARTFORD       CLOUDY    62  58  86 S18G24    29.57F
BRIDGEPORT     MOCLDY    58  56  93 S13       29.61R
DANBURY        MOCLDY    61  56  83 S9G20     29.59R
GROTON         CLOUDY    57 N/A N/A S21       29.64S FOG
NEW HAVEN      CLOUDY    60  56  86 S6        29.62R FOG
CHESTER        FOG       57  57 100 S13G21    29.63S VSB<1/4
MERIDEN        CLOUDY    60  57  89 S16G25    29.60S
WILLIMANTIC    CLOUDY    63  58  83 S16G23    29.62S
OXFORD         FOG       59  55  88 S14G21    29.60R VSB 1/2
$$

MEZ002-015-021-024-NHZ003-005-008-011-012-014-VTZ005-008-242200-
NORTHERN NEW ENGLAND

CITY           SKY/WX    TMP DP  RH WIND       PRES   REMARKS
PORTLAND ME    FOG       58  57  97 S12       29.55F VSB 1/2
BANGOR ME      LGT RAIN  57  56  96 S18       29.57F FOG
CONCORD NH     CLOUDY    64  58  80 S9        29.52S
MANCHESTER NH  PTCLDY    65  58  78 S20G25    29.51F
NASHUA NH      PTCLDY    65  60  83 S6G21     29.55F
PORTSMOUTH NH  MOCLDY    64  61  89 S12       29.53F
JAFFREY NH     MOCLDY    61  56  83 S13G26    29.54F
KEENE NH       CLOUDY    63  57  82 S13G18    29.53R
BURLINGTON VT  PTCLDY    66  56  70 S14G28    29.38R
MT. WASHINGTON FOG       41  41 100 SW36G56     N/A  VSB 1/16WCI  29
$$

NYZ052-076-242200-
EASTERN NEW YORK

CITY           SKY/WX    TMP DP  RH WIND       PRES   REMARKS
ALBANY         PTCLDY    67  57  70 S12G22    29.47R
NEW YORK CITY  PTCLDY    61  55  81 S9        29.59R
$$

ANZALL-242200-
MARINE OBSERVATIONS

STATION/POSITION TIME  TEMP    WIND        PRES    VSBY  WAVE
                       AIR SEA DIR/SP/G                  HT/PER
                 (UTC) (F)     (DEG/KT/KT) (MB)    (MI)  (FT/S)
BOSTON BUOY      2050   59 49  190/ 16/ 25 1002.9F         4/ 6
BUZZARDS BAY     2000          200/ 26/ 29 1005.3F
NANTUCKET SOUND  2050   56 49  180/ 19/ 21 1005.5F         3/ 4
MASS BAY-STELLWA 2004   56 50  200/ 14/ 16   N/A    1 5/8  5/ 6
ISLE OF SHOALS   2100   60     190/ 27/ 29 1000.3F
S OF BLOCK IS    2008      56                N/A          13/11
$$

......................KEY.........................
  SKY/WX - SKY CONDITION/PRESENT WEATHER
  TMP    - TEMPERATURE IN FAHRENHEIT
  DWPT   - DEWPOINT IN FAHRENHEIT
  RH     - RELATIVE HUMIDITY IN PERCENT
  WIND   - DIRECTION AND SPEED IN MPH
  PRES   - MEAN SEA LEVEL PRESSURE IN INCHES OF HG
  WCI    - WIND CHILL INDEX
  VSB    - VISIBILITY IN MILES
  HX     - HEAT INDEX
  TC     - TEMPERATURE IN CELSIUS
  VRB    - VARIABLE WIND DIRECTION
  N/A    - NOT AVAILABLE




U.S. Dept. of Commerce
NOAA National Weather Service
1325 East West Highway
Silver Spring, MD 20910
E-mail: w-nws.webmaster@noaa.gov
Page last modified: May 16, 2007
NATIONAL WEATHER SERVICE: for Safety, for Work, for Fun - FOR LIFE